Sterling, IL

2:07 AM CST on November 19, 2019 (GMT -0600)
Whiteside County-Bittorf

Weather History for KSQI - September, 2019

Change the Weather History Date:

Sunday, September 1, 2019

  Actual Average Record
Temperature  
Mean Temperature 68 °F -  
Max Temperature 75 °F 78 °F 96 °F (2000)
Min Temperature 62 °F 55 °F 48 °F (2017)
Cooling Degree Days 2    
Growing Degree Days 18 (Base 50)    
Moisture  
Dew Point 64 °F    
Average Humidity 92    
Maximum Humidity 100    
Minimum Humidity 73    
Precipitation  
Precipitation 0.12 in - - ()
Sea Level Pressure  
Sea Level Pressure 29.92 in    
Wind  
Wind Speed 4 mph ()    
Max Wind Speed 9 mph    
Max Gust Speed -    
Visibility 7.3 miles    
Events Rain    
Averages and records for this station are not official NWS values.
T = Trace of Precipitation, MM = Missing Value Source: Averaged Metar Reports

Daily Weather History Graph

Daily Weather History Graph

Search for Another Location

Airport or City:

Astronomy

Sep. 01, 2019 Rise Set
Actual Time 6:24 AM CDT 7:32 PM CDT
Civil Twilight 5:55 AM CDT 8:00 PM CDT
Nautical Twilight 5:21 AM CDT 8:34 PM CDT
Astronomical Twilight 4:45 AM CDT 9:10 PM CDT
Moon 8:56 AM CDT (9/1) 9:17 PM CDT (9/1)
Length of Visible Light 14h 05m
Length of Day
13h 07m
Waxing Crescent, 8% of the Moon is Illuminated
Sep 1
Waxing Crescent
Sep 5
First Quarter
Sep 13
Full
Sep 21
Last Quarter
Sep 28
New

Hourly Weather History & Observations

Time (CDT) Temp. Dew Point Humidity Pressure Visibility Wind Dir Wind Speed Gust Speed Precip Events Conditions
12:56 AM - - N/A% 30.20 in 3.0 mi ENE 8.1 mph - 0.08 in Rain Heavy Rain
1:56 AM 62.1 °F 61.0 °F 96% 29.78 in 10.0 mi ENE 5.8 mph - 0.02 in Rain Light Rain
2:56 AM 62.1 °F 62.1 °F 100% 29.76 in 9.0 mi North - - 0.01 in Rain Light Rain
3:56 AM 63.0 °F 62.1 °F 97% 29.75 in 10.0 mi ENE 5.8 mph - 0.01 in   Overcast
4:56 AM 63.0 °F 62.1 °F 97% 29.75 in 10.0 mi ENE 5.8 mph - N/A   Overcast
5:28 AM 62.6 °F 62.6 °F 100% 30.14 in 9.0 mi NE 5.8 mph - N/A   Overcast
5:37 AM 62.6 °F 62.6 °F 100% 30.15 in 9.0 mi NNE 6.9 mph - N/A   Overcast
5:46 AM 62.6 °F 62.6 °F 100% 30.15 in 8.0 mi NNE 6.9 mph - N/A   Overcast
5:56 AM 63.0 °F 63.0 °F 100% 29.75 in 7.0 mi NNE 5.8 mph - N/A   Overcast
6:45 AM 62.6 °F 62.6 °F 100% 30.15 in 2.0 mi NNE 4.6 mph - N/A   Overcast
6:56 AM 63.0 °F 63.0 °F 100% 29.75 in 1.5 mi NNE 4.6 mph - N/A   Overcast
7:25 AM 62.6 °F 62.6 °F 100% 30.16 in 1.2 mi NE 4.6 mph - 0.00 in Rain Light Rain
7:56 AM 63.0 °F 63.0 °F 100% 29.76 in 1.5 mi ENE 6.9 mph - 0.00 in Rain Light Rain
8:14 AM 64.4 °F 62.6 °F 94% 30.15 in 2.0 mi East 9.2 mph - 0.00 in   Overcast
8:26 AM 64.4 °F 62.6 °F 94% 30.15 in 3.0 mi East 9.2 mph - 0.00 in   Overcast
8:56 AM 64.0 °F 64.0 °F 100% 29.75 in 6.0 mi East 8.1 mph - 0.00 in   Overcast
9:16 AM 64.4 °F 64.4 °F 100% 30.15 in 7.0 mi East 8.1 mph - N/A   Overcast
9:32 AM 64.4 °F 64.4 °F 100% 30.15 in 10.0 mi East 8.1 mph - N/A   Overcast
9:56 AM 66.0 °F 64.0 °F 93% 29.75 in 10.0 mi East 5.8 mph - N/A   Overcast
10:56 AM 66.9 °F 64.0 °F 90% 29.76 in 9.0 mi NNE 3.5 mph - N/A   Overcast
11:56 AM 69.1 °F 64.0 °F 84% 29.74 in 10.0 mi Variable 4.6 mph - N/A   Overcast
12:56 PM 70.0 °F 64.9 °F 84% 30.13 in 10.0 mi ENE 5.8 mph - N/A   Overcast
1:07 PM 71.6 °F 64.4 °F 78% 30.13 in 10.0 mi Variable 3.5 mph - N/A   Overcast
1:56 PM 73.9 °F 64.9 °F 73% 29.71 in 10.0 mi Variable 4.6 mph - N/A   Overcast
2:16 PM 73.4 °F 64.4 °F 73% 30.11 in 10.0 mi NNE 3.5 mph - N/A   Overcast
2:54 PM 73.4 °F 64.4 °F 73% 30.10 in 10.0 mi Variable 4.6 mph - N/A   Overcast
2:56 PM 73.0 °F 64.0 °F 73% 29.70 in 10.0 mi ENE 3.5 mph - N/A   Overcast
3:56 PM 73.9 °F 64.9 °F 73% 29.69 in 10.0 mi Calm Calm - N/A   Overcast
4:33 PM 71.6 °F 64.4 °F 78% 30.08 in 10.0 mi Calm Calm - N/A   Overcast
4:45 PM 73.4 °F 64.4 °F 73% 30.08 in 10.0 mi Calm Calm - N/A   Overcast
4:56 PM 73.0 °F 64.9 °F 76% 29.68 in 10.0 mi Calm Calm - N/A   Overcast
5:56 PM 72.0 °F 64.9 °F 78% 29.68 in 10.0 mi Calm Calm - N/A   Overcast
6:56 PM 70.0 °F 66.0 °F 87% 29.67 in 10.0 mi Calm Calm - N/A   Mostly Cloudy
7:56 PM 68.0 °F 66.0 °F 93% 29.68 in 3.0 mi Calm Calm - N/A   Overcast
8:56 PM 66.0 °F 66.0 °F 100% 29.69 in 10.0 mi Calm Calm - N/A   Mostly Cloudy
9:56 PM 66.0 °F 64.9 °F 96% 29.69 in 10.0 mi Calm Calm - N/A   Overcast
10:38 PM 62.6 °F 62.6 °F 100% 30.10 in 1.8 mi Calm Calm - N/A   Clear
10:49 PM 62.6 °F 62.6 °F 100% 30.10 in 3.0 mi Calm Calm - N/A   Clear
10:56 PM 63.0 °F 63.0 °F 100% 29.70 in 6.0 mi Calm Calm - N/A   Clear
11:15 PM 62.6 °F 62.6 °F 100% 30.10 in 2.5 mi Calm Calm - N/A   Clear
11:23 PM 62.6 °F 62.6 °F 100% 30.10 in 5.0 mi Calm Calm - N/A   Clear
11:56 PM 64.0 °F 64.0 °F 100% 29.70 in 7.0 mi Calm Calm - N/A   Clear